Location: Fort Wayne
(41.1310°N, 85.1290°W)
Time: 08:22:02
(UTC-04:00)

Meteor 2-10 Rocket - Visible Passes

Search period start: 02 August 2015 00:00
Search period end: 12 August 2015 00:00
Orbit: 735 x 884 km, 81.2° (Epoch: 02 August)

Date Brightness Start Highest point End Pass type
(mag) Time Alt. Az. Time Alt. Az. Time Alt. Az.
02 Aug 4.2 21:35:36 10° NNW 21:41:10 62° W 21:46:28 10° S visible
04 Aug 6.3 22:31:12 10° NW 22:34:12 14° W 22:36:51 10° WSW visible
05 Aug 6.2 22:06:08 10° NW 22:10:10 20° W 22:13:54 10° SW visible
06 Aug 5.7 21:41:24 10° NNW 21:46:06 28° W 21:50:31 10° SW visible
07 Aug 5.1 21:16:53 10° NNW 21:22:00 39° W 21:26:52 10° SSW visible
10 Aug 6.6 21:48:29 10° WNW 21:50:51 13° W 21:52:52 10° WSW visible
11 Aug 6.3 21:23:10 10° NW 21:26:49 18° W 21:30:10 10° SW visible
